Regional Weather Roundup
Issued by NWS

Home | Current Version | Previous Version | Text Only | Print | Product List | Glossary On
Versions: 1 2 3 4 5 6 7 8 9 10 11 12 13 14 15 16 17 18 19 20 21 22 23 24 25 26 27 28 29 30 31 32 33 34 35 36 37 38 39 40 41 42 43 44 45 46 47 48 49 50
000
ASUS43 KIND 192109
RWRIN

WEATHER ROUNDUP FOR INDIANA
NATIONAL WEATHER SERVICE INDIANAPOLIS IN
500 PM EDT SUN APR 19 2015

NOTE: "FAIR" INDICATES FEW OR NO CLOUDS BELOW 12,000 FEET WITH NO
SIGNIFICANT WEATHER AND/OR OBSTRUCTIONS TO VISIBILITY.

* - STATION DOES NOT REPORT WEATHER SUCH AS PRECIPITATION OR FOG.

+ - STATION NOT QUALITY CONTROLLED BY THE NATIONAL WEATHER SERVICE.
    USE DATA WITH CAUTION...ESPECIALLY DEWPOINT AND RELATIVE
    HUMIDITY OBSERVATIONS.

INZ001>003-010>013-019-020-192200-
NORTHWEST INDIANA

CITY           SKY/WX    TMP DP  RH WIND       PRES   REMARKS
GARY /AIRPORT/ LGT RAIN  59  48  67 SE12      29.56F
KNOX *+        CLOUDY    54  46  76 E14       29.54F
LA PORTE +     LGT RAIN  57  53  88 E15       29.57F
MICHIGAN CITY+ RAIN      55  46  71 E6        29.56F
MONTICELLO +   RAIN      55  55  99 E9        29.51F
RENSSELAER +   LGT RAIN  54  54 100 E13G24    29.53F
VALPARAISO     RAIN      54  52  93 E15       29.55F FOG

$$

LMZ046-743>745-192200-
SOUTHERN LAKE MICHIGAN

STATION/POSITION TIME  TEMP WIND        PRES
                       AIR  DIR/SP/G
                 (UTC) (F)  (DEG/KT/KT) (MB)
BURNS HARBOR     2100   57  100/  7/ 13 1002.0S
MICHIGAN CITY    2100   57   60/ 12/ 15   N/A
4NW MICH CITY    2100   51  100/  8/ 12   N/A

$$

INZ004-005-014>016-021>024-192200-
NORTH CENTRAL INDIANA

CITY           SKY/WX    TMP DP  RH WIND       PRES   REMARKS
ELKHART        LGT RAIN  55  48  76 E16G22    29.60F
GOSHEN         LGT RAIN  53  47  79 E22G31    29.60F
LOGANSPORT +   RAIN      54  54 100 NE8       29.53F
PERU/GRISSOM   LGT RAIN  55  54  94 NE14      29.51F FOG
ROCHESTER +    LGT RAIN  55  55 100 E15       29.55F
SOUTH BEND     RAIN      56  50  80 E13G21    29.59F
WARSAW +       RAIN      54  52  94 E14       29.58F

$$

INZ006>009-017-018-025>027-192200-
NORTHEAST INDIANA

CITY           SKY/WX    TMP DP  RH WIND       PRES   REMARKS
ANGOLA *+      PTSUNNY   52  46  82 E15       29.64F
AUBURN +       LGT RAIN  52  46  82 NE17G23   29.63F
FORT WAYNE     LGT RAIN  52  49  89 NE18      29.58F FOG
HUNTINGTON +   RAIN      51  48  89 NE14G21   29.55F

$$

INZ028-029-035-036-043>045-051>053-192200-
WEST CENTRAL INDIANA

CITY           SKY/WX    TMP DP  RH WIND       PRES   REMARKS
CRAWFORDSVL +  LGT RAIN  57  55  92 E6        29.47F
GREENCASTLE +  LGT RAIN  59  55  88 E7        29.47F
LAFAYETTE      LGT RAIN  56  55  97 E13       29.49F FOG
TERRE HAUTE    LGT RAIN  62  60  93 E9        29.45F

$$

INZ030>032-037>040-046>048-054>057-064-065-192200-
CENTRAL INDIANA

CITY           SKY/WX    TMP DP  RH WIND       PRES   REMARKS
CP ATTERBURY + DRIZZLE   63  61  94 SE12      29.46F
COLUMBUS       CLOUDY    63  61  94 SE12      29.46F
FISHERS *+     CLOUDY    59  59 100 E6        29.45F
FRANKFORT +    RAIN      58  58 100 NE10      29.51F
GREENWOOD *+   CLOUDY    61  59  94 E8        29.45F
INDIANAPOLIS   LGT RAIN  61  59  93 NE5       29.44F VSB 1
-EAGLE CREEK   LGT RAIN  60  59  96 N5        29.45F FOG
KOKOMO *+      CLOUDY    57  54  88 NE14      29.51F
MARION +       RAIN      58  58  99 NE9       29.51F
MT COMFORT *+  CLOUDY    61 N/A N/A E8        29.47F
SHELBYVILLE    RAIN      65  61  87 SE10      29.45F FOG
ZIONSVILLE +   HVY RAIN  60  57  89 NE6       29.48F

$$

INZ033-034-041-042-049-050-058-059-192200-
EAST CENTRAL INDIANA

CITY           SKY/WX    TMP DP  RH WIND       PRES   REMARKS
MUNCIE         RAIN      62  60  93 E16       29.49F FOG

$$

INZ060-061-067>069-081>083-085>088-192200-
SOUTHWEST INDIANA

CITY           SKY/WX    TMP DP  RH WIND       PRES   REMARKS
EVANSVILLE     LGT RAIN  67  65  93 S5        29.47F
HUNTINGBURG *+ CLOUDY    68  63  83 SW8       29.47F
WASHINGTON +   CLOUDY    67  63  87 S9        29.45F

$$

INZ062-063-066-070>080-084-089>092-192200-
SOUTH CENTRAL AND SOUTHEAST INDIANA

CITY           SKY/WX    TMP DP  RH WIND       PRES   REMARKS
BLOOMINGTON    CLOUDY    64  61  90 SE6       29.46F
MADISON *+     CLOUDY    64  61  88 SE7       29.50F
NORTH VERNON + CLOUDY    64  64 100 SE9       29.47F

$$




USA.gov is the U.S. government's official web portal to all federal, state and local government web resources and services.